Snowfall_Accumulation
1.4 3.2 6.5 2.1 2.1 2.3 2.9 3.3 3.1 1.9 0.9 1.6 1.3 1.3 0.9 0.7 0.8 0.9 0.8 0.8 0.6 0.4 0.2 0.2 0.1 0.1 0.2 0.1 0.0 0.1 0.1 0.2 0.1 0.1 0.1 0.1 0.1 0.2 0.1 0.1 0.2 0.2 0.2 0.1
3.5 5.4 1.2 0.5 0.9 2.2 3.2 4.6 3.1 1.7 1.0 2.2 2.2 1.7 1.3 1.1 1.2 1.2 1.1 1.1 0.7 0.4 0.3 0.2 0.2 0.2 0.1 0.1 0.1 0.1 0.1 0.2 0.3 0.2 0.2 0.1 0.1 0.2 0.3 0.3 0.2 0.2 0.4 0.3
6.2 2.8 0.7 0.9 2.4 4.0 3.9 4.2 3.4 3.3 1.8 1.5 2.8 3.5 2.1 1.5 1.2 1.0 0.9 1.1 0.9 0.6 0.5 0.3 0.3 0.2 0.3 0.3 0.2 0.2 0.2 0.2 0.3 0.5 0.3 0.1 0.1 0.2 0.4 0.6 0.2 0.4 0.4 0.5
2.9 1.0 0.7 1.7 2.4 3.5 5.3 1.8 2.2 2.9 4.3 5.8 5.5 10.2 3.8 2.3 1.3 1.2 1.0 1.1 0.8 0.7 0.5 0.4 0.3 0.4 0.4 0.4 0.2 0.2 0.2 0.3 0.3 0.3 0.3 0.4 0.3 0.6 0.4 0.7 0.7 0.5 0.3 0.4
4.0 1.1 1.3 2.8 2.1 2.0 3.0 1.2 1.7 2.8 5.7 8.6 4.1 8.6 6.7 2.0 2.3 1.8 1.7 1.4 1.2 1.0 0.8 0.6 0.5 0.6 0.6 0.6 0.5 0.2 0.2 0.3 0.4 0.3 0.7 0.3 0.5 0.6 0.7 0.5 0.8 0.3 0.2 0.4
1.7 0.7 0.9 1.8 0.8 0.9 1.4 1.6 2.4 3.4 8.4 14.7 5.4 7.1 7.4 5.2 5.0 3.5 2.5 1.9 1.5 1.2 1.1 0.8 0.7 0.7 0.7 0.8 0.8 0.4 0.3 0.3 0.3 0.6 0.5 0.6 0.4 0.4 0.5 0.3 0.7 0.9 0.4 0.3
10.0 2.3 1.0 0.8 2.2 1.8 3.0 10.8 20.3 21.1 20.5 11.2 3.5 4.9 7.3 4.3 3.8 3.6 3.2 2.5 2.2 1.7 1.5 1.5 1.4 1.1 1.0 1.2 1.0 1.0 0.9 0.5 0.6 0.7 1.0 1.0 0.7 0.7 0.8 1.0 0.8 1.0 0.7 0.6
14.0 12.2 2.0 1.3 2.1 3.9 4.0 8.1 14.8 14.9 10.3 5.3 3.6 5.4 6.1 3.3 2.7 2.6 2.4 2.2 1.9 1.7 1.7 1.7 1.9 1.5 1.1 1.3 1.4 1.3 1.1 1.1 0.8 0.8 1.1 1.3 1.2 1.1 0.9 1.0 0.7 0.8 1.1 0.8
10.9 10.1 1.3 1.0 1.2 1.9 5.6 7.2 6.1 12.7 9.2 6.7 5.7 5.6 4.0 2.3 2.1 2.2 2.1 1.8 1.8 1.8 1.8 1.8 1.8 1.7 1.5 1.3 1.7 1.8 1.4 1.2 0.9 0.9 1.1 1.3 1.0 1.0 1.0 1.0 1.2 1.0 1.2 0.8
7.6 11.0 2.4 0.6 0.9 1.3 2.3 3.9 9.7 18.2 15.4 9.3 5.8 5.0 6.0 4.1 3.5 3.3 2.9 2.4 2.3 2.0 1.7 1.7 1.9 2.0 1.9 1.9 2.0 1.9 1.6 1.6 1.2 0.9 1.0 1.4 1.3 1.0 0.9 0.9 0.8 1.0 1.1 1.3
4.0 10.8 6.9 3.1 5.4 5.6 5.0 7.7 11.8 14.4 12.6 11.4 7.5 6.4 5.5 4.3 4.2 4.0 3.6 3.0 2.7 2.4 2.2 1.9 1.9 2.1 1.9 1.8 1.8 1.8 1.5 1.3 1.3 1.0 1.0 1.1 1.3 0.9 0.9 0.8 0.8 0.8 0.9 1.1
3.5 9.4 10.1 4.1 1.4 1.4 3.4 6.6 10.0 16.2 12.1 9.1 8.1 6.8 3.1 2.8 3.2 3.1 2.9 2.8 2.6 2.4 2.4 2.3 2.1 2.0 2.0 1.9 1.8 2.1 1.9 1.6 1.3 1.1 1.1 1.0 1.1 0.8 1.0 0.8 0.8 0.8 0.9 0.9
6.1 13.3 14.7 6.8 3.9 2.4 5.9 5.0 5.9 10.5 14.3 11.8 9.8 6.8 2.6 2.2 2.4 2.4 2.4 2.6 2.5 2.4 2.1 2.0 2.1 2.0 2.0 2.0 2.1 2.2 2.5 2.1 2.0 1.2 1.3 1.0 1.0 0.6 0.8 0.8 0.9 0.8 0.9 1.0
6.1 13.4 11.7 10.0 7.7 7.5 7.9 5.2 5.2 12.0 19.0 10.9 6.5 5.4 3.6 3.0 2.8 2.6 2.6 2.5 2.7 2.4 2.1 2.0 2.1 2.2 2.1 2.3 2.3 2.2 2.4 2.6 2.8 1.9 1.9 1.7 2.0 1.6 1.0 1.3 1.1 0.8 0.9 1.1
4.7 13.0 8.2 5.1 2.9 4.7 5.8 5.1 5.0 8.9 9.2 10.3 5.8 4.5 4.3 4.0 3.5 3.3 3.0 2.6 2.5 2.3 2.1 2.0 2.2 2.2 1.8 1.8 2.0 2.3 2.1 2.4 2.7 2.1 1.7 2.0 2.0 1.7 1.7 1.5 1.2 1.1 1.1 1.2
4.4 10.3 7.9 5.5 2.6 3.5 5.1 3.4 3.1 4.0 3.8 5.0 4.5 4.9 3.4 3.1 2.8 2.7 2.9 2.5 2.7 2.7 2.5 2.3 2.3 2.7 2.3 1.7 1.9 2.1 2.0 2.0 2.2 1.9 1.9 1.7 1.7 1.7 1.7 1.9 1.9 1.2 1.2 1.2
5.1 8.2 12.4 8.7 3.3 5.2 8.7 4.1 3.7 3.8 3.8 4.1 5.5 4.6 3.2 2.9 3.0 3.6 3.7 3.3 3.2 3.2 2.9 2.5 2.4 2.7 2.6 2.4 2.3 2.1 2.1 1.9 1.9 1.7 1.8 1.8 1.5 1.5 1.6 1.8 2.1 1.4 1.8 1.4
5.3 7.2 13.3 10.8 7.8 11.1 5.5 3.2 3.1 3.6 4.4 4.1 4.1 3.8 3.4 3.5 3.4 3.8 3.9 3.8 3.5 3.1 2.7 2.4 2.3 2.4 2.5 2.4 2.1 1.9 1.8 1.7 1.8 1.6 1.3 1.4 1.5 1.5 1.6 2.0 2.1 1.9 1.9 2.0
3.1 6.8 14.3 13.1 9.5 6.2 2.7 2.4 3.7 4.6 5.1 4.1 3.7 2.9 2.7 2.6 2.3 2.9 3.1 3.3 3.5 3.2 3.0 2.6 2.6 2.7 2.4 2.4 2.4 1.8 1.6 1.6 1.8 1.3 1.2 1.3 1.6 1.8 1.8 2.3 2.5 2.2 2.7 3.1
2.7 5.6 13.1 13.7 11.7 6.9 3.8 2.0 2.4 3.8 6.2 3.7 3.3 3.4 2.9 2.5 3.9 3.9 3.1 3.3 2.8 2.6 2.6 2.6 2.7 2.4 2.2 2.3 2.1 2.3 2.2 2.0 2.1 2.2 1.9 1.4 1.8 2.3 2.5 3.1 3.2 3.0 3.4 3.9
5.2 8.6 12.1 11.0 11.1 5.9 3.6 1.9 1.7 5.6 8.4 3.6 3.3 3.6 3.6 4.5 5.5 4.4 3.3 3.2 2.8 2.3 2.4 2.2 2.3 2.4 2.5 2.6 2.1 2.4 2.4 3.0 3.8 3.2 2.8 2.5 2.3 2.6 3.3 3.4 3.3 3.0 3.0 2.8
5.2 7.2 7.8 8.4 11.5 8.0 3.3 2.8 5.6 7.1 4.4 3.7 3.4 3.4 3.7 3.9 3.5 3.2 2.9 2.9 2.9 2.5 2.2 2.4 2.6 2.7 3.3 3.0 3.5 3.3 3.9 4.3 3.9 3.9 4.2 4.2 3.6 3.2 3.2 3.8 3.6 3.4 3.0 3.1
5.2 6.8 7.8 8.2 8.4 6.4 4.8 5.4 5.7 4.9 4.6 4.0 4.0 3.8 3.7 3.6 3.6 3.3 2.9 2.8 2.9 2.7 2.6 2.7 2.8 2.8 2.9 3.1 3.6 3.9 4.3 4.1 4.0 4.0 4.2 3.9 3.3 3.0 3.2 3.6 3.4 3.0 2.9 2.9
4.5 3.8 5.4 6.4 5.5 4.7 4.1 3.5 3.3 3.5 4.3 4.2 4.0 3.8 3.5 3.8 3.6 3.4 3.0 2.9 3.0 3.1 3.1 2.9 2.9 3.3 3.1 3.1 3.2 4.0 3.6 3.6 3.8 3.6 3.5 3.2 3.3 3.2 3.0 3.0 3.1 3.4 3.9 3.7
4.5 4.2 5.4 5.8 4.5 3.5 2.9 3.1 3.3 3.0 2.7 2.7 2.7 2.9 3.2 3.3 3.4 3.4 3.4 3.3 3.3 3.6 3.5 3.4 3.5 3.8 3.6 3.5 3.7 3.5 3.3 3.5 4.1 3.7 3.3 3.5 3.7 3.8 3.6 3.1 3.5 3.7 4.1 4.9
4.7 5.8 7.1 6.7 4.4 5.0 4.2 3.2 2.9 2.8 2.8 2.5 2.4 2.4 2.5 2.8 3.2 3.1 3.4 3.6 3.5 3.6 3.5 3.3 3.4 3.8 3.9 3.7 3.9 3.9 3.5 3.6 4.3 4.5 3.8 3.9 4.3 4.3 4.2 3.8 3.6 3.5 4.0 3.8